Overview Statistics Trail Chart Weather Telemetry Raw packets
 

This is the latest recevied weather packets stored in our database for station/object IU1OPQ-3. If no packets are shown the sender has not sent any weather packets the latest 10 day(s).

<< 1 2 3 4 >>
Time Temp. Humidity Pressure Rain* Wind** Luminosity Snow
1788567601 22.22° C 80% 1018.3 hPa 0 mm - - -
1788566400 21.67° C 81% 1018.7 hPa 0 mm - - -
1788565200 21.67° C 81% 1018.6 hPa 0 mm - - -
1788564001 21.67° C 81% 1018.4 hPa 0 mm - - -
1788562801 21.67° C 79% 1018.4 hPa 0 mm - - -
1788561601 22.22° C 76% 1018.6 hPa 0 mm - - -
1788560400 22.22° C 77% 1018.6 hPa 0 mm - - -
1788559201 22.22° C 77% 1018.3 hPa 0 mm - - -
1788558001 22.22° C 76% 1018.5 hPa 0 mm - - -
1788556801 22.22° C 74% 1018.4 hPa 0 mm - - -
1788555601 22.78° C 72% 1018.6 hPa 0 mm - - -
1788554401 23.33° C 69% 1018.6 hPa 0 mm - - -
1788553201 23.33° C 70% 1018.7 hPa 0 mm - - -
1788552001 23.33° C 70% 1018.7 hPa 0 mm - - -
1788550801 22.78° C 72% 1018.6 hPa 0 mm - - -
1788549601 23.33° C 69% 1018.6 hPa 0 mm - - -
1788548401 23.33° C 70% 1018.4 hPa 0 mm - - -
1788547200 23.89° C 67% 1018.2 hPa 0 mm - - -
1788546001 24.44° C 66% 1017.9 hPa 0 mm - - -
1788544801 24.44° C 68% 1017.8 hPa 0 mm - - -
1788543600 25° C 66% 1017.5 hPa 0 mm - - -
1788542401 26.11° C 64% 1017.9 hPa 0 mm - - -
1788541200 26.11° C 62% 1017.9 hPa 0 mm - - -
1788540001 27.22° C 60% 1018.1 hPa 0 mm - - -
1788538801 27.78° C 58% 1018.1 hPa 0 mm - - -

* Rain latest hour (hover to see other rain measurements)
** Current wind speed in m/s (hover to see current wind gust speed)